Location: Shepherdstown, WV
(39.4326°N, 77.8042°W)
Time: 04:53:38
(UTC-04:00)

Vanguard 1 - Pass Details

Date: 03 August 2021
Orbit: 652 x 3831 km, 34.3° (Epoch: 24 September)

Event Time Altitude Azimuth Distance (km) Brightness Sun altitude
Rises 16:32:15 0° 272° (W) 4,000 14.0 42.5°
Reaches altitude 10° 16:34:53 10° 261° (W) 3,343 13.9 42.0°
Maximum altitude 16:42:22 32° 202° (SSW) 2,852 13.2 40.6°
Drops below altitude 10° 16:54:39 10° 147° (SSE) 5,537 13.8 38.2°
Sets 17:00:39 0° 140° (SE) 7,062 14.2 37.1°
